Location: Seattle
(47.6064°N, 122.3308°W)
Time: 15:47:32
(UTC-07:00)

BUGSAT 1 - Visible Passes

Search period start: 22 March 2023 00:00
Search period end: 01 April 2023 00:00
Orbit: 550 x 592 km, 98.1° (Epoch: 22 March)

Date Brightness Start Highest point End Pass type
(mag) Time Alt. Az. Time Alt. Az. Time Alt. Az.
22 Mar ? 20:06:43 10° SW 20:09:37 18° W 20:12:31 10° NW visible
23 Mar ? 20:09:00 10° SW 20:11:48 17° W 20:14:35 10° NW visible
24 Mar ? 20:11:17 10° SW 20:13:58 17° W 20:16:39 10° NW visible
25 Mar ? 20:13:33 10° SW 20:16:07 16° W 20:18:41 10° NW visible
26 Mar ? 20:15:49 10° SW 20:18:16 15° W 20:20:43 10° NW visible
27 Mar ? 20:18:06 10° SW 20:20:24 14° W 20:22:42 10° WNW visible
28 Mar ? 20:20:22 10° WSW 20:22:31 14° W 20:24:41 10° WNW visible
29 Mar ? 20:22:38 10° WSW 20:24:38 13° W 20:26:38 10° WNW visible
30 Mar ? 20:24:54 10° WSW 20:26:44 13° W 20:28:33 10° WNW visible
31 Mar ? 20:27:12 10° WSW 20:28:49 12° W 20:30:26 10° WNW visible
